Hourly Data Report for July 08, 2021

FISHER BRANCH (AUT)
MANITOBA
Current Station Operator: ECCC - MSC

51°05'00.100" N
97°33'16.200" W
253.00 m
50309J6
71442
WSZ

Download Data

Hourly Data (July 2021)
Hourly Data Report for July 8, 2021
TIME
LST
Temp Definition
°C
Dew Point Definition
°C
Rel Hum Definition
%
Precip. Amount Definition
mm

Wind Dir Definition
10's deg

Wind Spd Definition
km/h
Visibility Definition
km
Stn Press Definition
kPa
Hmdx Definition


Wind Chill Definition


Weather Definition


00:00 8.2 5.3 82 0.0 14 6   98.49     LegendNANA
01:00 7.1 4.0 81 0.0 13 2   98.50     LegendNANA
02:00 6.8 4.4 84 0.0 12 5   98.46     LegendNANA
03:00 8.7 6.0 83 0.0 17 8   98.48     LegendNANA
04:00 8.9 5.7 80 0.0 16 5   98.46     LegendNANA
05:00 8.1 5.8 85 0.0 16 6   98.46     LegendNANA
06:00 11.3 8.8 84 0.0 17 6   98.45     LegendNANA
07:00 15.4 10.1 71 0.0 18 11   98.47     LegendNANA
08:00 18.9 10.1 56 0.0 19 10   98.45     LegendNANA
09:00 20.9 9.6 49 0.0 18 10   98.43     LegendNANA
10:00 20.9 9.1 47 0.0 14 9   98.40     LegendNANA
11:00 21.9 9.3 45 0.0 16 9   98.39     LegendNANA
12:00 22.5 8.4 40 0.0 14 10   98.39     LegendNANA
13:00 23.2 8.3 38 0.0 12 6   98.36     LegendNANA
14:00 23.2 9.0 40 0.0 18 10   98.37     LegendNANA
15:00 25.2 9.7 38 0.0 19 7   98.36 26   LegendNANA
16:00 24.9 8.2 35 0.0 12 9   98.32 25   LegendNANA
17:00 24.4 8.5 36 0.0 25 4   98.30 25   LegendNANA
18:00 23.9 9.6 40 0.0 13 8   98.26 25   LegendNANA
19:00 22.4 11.4 50 0.0 12 14   98.26     LegendNANA
20:00 20.7 11.9 57 0.0 12 9   98.26     LegendNANA
21:00 17.4 12.1 71 0.0 12 8   98.32     LegendNANA
22:00 17.0 11.8 71 0.0 10 6   98.33     LegendNANA
23:00 16.8 12.4 75 0.0 11 7   98.37     LegendNANA

Notes on Data Quality.

Legend

  • E = Estimated
  • M = Missing
  • NA = Not Available*
  • [empty] = Indicates an unobserved value
Date modified: